Dewpoint
65 68 68 68 68 69 69 69 69 69 70 70 69 69 69 68 68 69 69 68 68 66 68 68 68 67 67 68 68 68 68 67 67 66 65 64 64 64 64 64 63 62 62
66 68 68 68 68 68 68 69 69 69 69 69 69 68 68 68 68 68 70 67 67 68 68 66 66 66 66 67 68 68 68 68 67 66 65 64 64 64 64 64 64 64 63
66 68 68 69 69 68 68 69 69 69 69 69 68 68 68 69 69 69 69 67 68 67 65 65 65 64 65 67 68 68 67 67 66 65 65 64 64 64 64 64 64 66 66
66 67 68 68 68 69 68 68 69 69 69 69 69 69 70 70 69 69 69 69 68 66 64 63 63 63 66 67 67 66 66 66 66 65 65 64 64 65 66 65 66 66 65
65 66 68 68 68 69 68 69 68 68 69 69 69 69 69 69 69 69 69 68 68 66 63 62 63 64 66 67 66 67 66 64 65 65 64 65 64 64 65 65 65 65 65
65 66 68 68 68 68 69 68 69 69 69 69 69 69 68 68 69 69 68 67 66 65 63 63 64 65 65 66 66 66 65 64 66 65 65 65 64 66 65 64 65 64 63
66 67 68 68 68 69 69 69 69 69 69 69 68 68 67 69 69 69 68 67 66 65 63 63 62 62 62 63 63 63 62 65 65 65 65 65 66 65 65 64 64 63 63
66 67 68 68 68 68 68 68 68 68 68 69 69 69 68 70 68 67 66 65 65 64 64 63 61 62 61 60 61 61 64 65 66 65 65 66 65 65 64 63 63 63 62
66 67 67 68 68 68 68 68 68 68 68 69 69 69 69 68 67 66 64 63 62 63 63 63 63 63 64 64 62 61 65 66 65 65 66 66 65 64 63 63 61 60 58
66 65 66 68 67 67 68 68 68 68 68 69 69 69 68 67 66 63 61 61 63 64 64 63 65 66 67 66 65 64 65 65 65 66 66 65 64 64 63 61 59 57 55
63 63 64 65 66 67 68 68 68 68 68 68 68 67 66 65 63 61 58 61 63 62 63 65 66 66 66 66 66 66 66 66 66 65 65 64 63 62 61 59 57 55 54
60 61 63 64 65 66 67 67 67 68 68 67 66 64 63 62 61 59 59 60 62 62 63 65 64 63 63 64 66 66 67 66 65 64 63 63 62 61 59 57 55 54 52
60 61 62 63 64 64 64 65 66 66 66 65 64 62 61 60 60 59 59 57 59 60 63 64 63 62 63 63 64 64 64 64 63 62 63 62 61 59 56 55 54 52 51
60 61 62 64 64 64 64 64 64 64 64 64 62 61 59 59 58 57 56 54 55 58 63 64 62 62 62 62 62 63 63 63 62 61 61 60 58 57 55 54 53 51 50
59 61 62 63 63 64 63 63 63 63 63 63 61 60 58 58 56 56 55 52 52 58 63 62 60 61 60 60 60 61 62 61 60 60 60 58 57 56 55 53 52 50 49
61 62 63 62 62 63 63 62 61 62 61 61 60 59 58 58 56 55 53 51 51 59 63 62 60 60 59 58 58 58 59 59 58 58 57 57 56 55 53 52 51 49 49
61 62 62 61 61 62 61 61 59 59 59 59 59 59 58 58 56 54 52 51 52 62 62 61 59 59 58 57 56 56 56 55 54 53 53 52 52 52 52 50 49 48 47
61 61 61 61 60 60 59 58 56 57 57 57 58 59 59 57 57 54 51 52 55 63 61 60 59 58 57 57 56 55 54 53 52 51 50 49 49 49 50 49 47 46 46
60 61 61 60 58 58 57 55 55 55 55 56 56 58 59 58 56 55 52 57 60 61 60 59 59 57 57 56 55 54 53 52 51 49 47 46 47 46 47 47 46 44 43
60 60 60 59 57 57 55 53 54 55 54 54 55 57 58 58 56 57 57 62 61 60 58 58 57 57 57 56 55 53 52 51 49 47 44 44 44 44 44 44 43 43 41
59 59 59 58 56 56 53 51 54 54 54 53 55 57 58 58 59 58 60 62 61 59 58 57 55 54 52 52 50 47 44 43 44 44 42 40 42 43 43 42 42 41 40
58 59 58 57 57 55 54 53 55 55 54 54 56 59 59 60 60 61 61 61 60 58 57 55 53 51 48 50 49 42 40 39 39 38 41 39 40 41 41 42 42 41 38
57 58 58 57 58 55 56 56 56 57 58 57 58 58 60 61 62 61 61 61 60 58 56 54 52 50 49 46 44 42 39 38 37 37 35 36 38 39 40 40 41 41 38
56 57 57 56 57 57 56 57 56 55 55 56 56 58 61 62 62 61 61 61 59 58 57 54 51 49 48 44 44 47 43 40 35 33 36 33 33 34 36 38 40 40 39
56 56 57 55 56 57 56 57 57 56 56 59 58 59 61 62 61 61 61 60 59 59 57 55 51 49 48 46 44 47 41 40 38 36 33 32 33 32 31 33 37 40 38
55 56 56 54 55 57 55 57 56 55 57 59 59 59 61 61 61 61 60 59 58 58 57 55 52 49 48 47 46 46 42 40 38 35 33 32 30 31 31 32 32 38 37
Wind_Speed
11 12 14 14 13 13 14 14 15 20 24 24 26 27 27 27 23 20 17 16 16 21 19 18 21 23 26 28 28 29 23 20 21 21 21 22 21 21 21 20 18 17 19
19 14 15 14 15 17 17 16 18 23 24 25 26 25 25 24 21 19 16 15 19 23 20 20 23 23 26 27 29 25 23 21 20 21 21 22 21 21 20 20 19 17 18
19 14 14 16 17 18 19 18 18 22 24 24 24 23 23 21 19 19 19 19 20 22 21 22 23 25 26 27 25 22 20 19 20 21 20 15 17 20 20 19 18 17 16
17 14 14 18 19 19 19 18 19 21 24 24 22 22 21 20 19 20 19 19 20 21 22 23 24 24 24 23 23 20 19 18 18 16 12 13 17 19 18 18 20 21 23
14 12 15 19 18 19 19 19 19 21 22 23 24 23 22 20 20 19 18 21 21 21 22 23 23 23 21 20 20 16 16 17 17 15 15 15 14 17 19 22 20 21 21
12 12 16 19 17 18 18 19 18 19 21 22 23 24 21 20 20 19 19 19 20 22 23 22 21 20 20 19 17 16 17 18 17 15 16 15 14 21 21 20 20 20 20
12 11 15 19 17 18 17 18 17 16 17 19 22 22 20 19 17 19 19 20 19 21 21 21 19 18 18 17 15 15 17 19 17 16 15 12 16 20 21 21 19 19 18
14 12 15 18 17 18 17 17 18 17 15 15 18 19 19 16 16 16 17 17 17 19 18 17 16 14 13 12 12 15 21 20 17 16 13 13 19 20 21 20 19 19 19
12 13 13 12 16 18 17 18 20 18 17 17 17 18 19 18 17 15 16 16 17 20 17 16 14 13 10 9 14 18 21 23 18 13 14 13 21 19 19 19 19 19 18
14 16 16 10 13 15 16 19 19 19 17 17 20 19 18 18 16 15 15 14 19 17 16 17 16 20 15 8 21 23 22 19 14 14 15 16 19 19 19 18 18 18 17
18 18 16 14 13 14 14 16 17 19 19 17 15 19 18 13 12 12 12 16 19 17 17 20 23 24 24 25 27 25 19 12 14 15 15 20 19 17 17 18 18 18 17
25 21 18 16 17 16 14 16 14 15 13 12 14 13 13 15 13 11 11 16 19 17 17 22 22 20 16 14 16 18 14 15 14 14 14 20 18 16 16 17 17 17 17
28 21 20 18 18 19 16 15 13 12 11 12 14 15 15 13 11 11 10 12 15 14 13 16 15 13 15 13 15 15 16 14 14 13 15 19 16 17 15 17 17 16 15
28 25 22 18 19 18 15 14 15 14 13 13 14 16 16 14 13 12 11 11 14 12 16 13 13 14 15 15 16 16 16 15 14 13 15 19 16 14 15 17 16 14 14
29 26 25 20 19 18 18 12 13 14 15 15 16 16 16 15 16 11 10 10 12 14 16 15 15 14 15 15 15 17 16 16 16 12 12 17 15 14 13 15 14 14 13
27 27 25 23 20 19 19 17 16 15 15 16 16 17 18 16 16 14 12 11 11 14 14 14 15 14 13 13 14 14 13 13 12 12 11 14 15 14 13 14 13 13 12
28 27 27 25 21 22 21 19 15 16 15 16 16 16 17 16 16 14 13 12 12 13 18 16 15 16 16 13 14 14 13 13 14 13 11 15 14 15 13 13 12 12 12
28 28 27 24 22 22 19 19 15 15 15 15 14 14 16 15 15 15 14 12 12 13 14 15 16 15 14 14 13 11 11 11 13 12 12 13 12 11 12 13 12 11 10
31 30 28 26 25 22 19 18 17 16 16 17 15 16 16 16 16 17 16 13 15 14 13 14 13 15 15 12 13 11 10 10 11 11 12 12 11 11 11 13 12 10 9
31 31 29 25 25 23 19 17 15 15 15 14 18 17 17 15 17 16 13 15 17 17 15 12 16 12 13 15 14 10 9 8 9 10 11 10 11 10 10 11 10 9 8
28 32 31 29 26 24 23 22 21 22 17 14 13 16 17 17 18 17 14 16 16 20 21 19 15 20 12 14 15 12 8 4 5 6 7 10 11 9 10 10 10 8 6
34 32 33 31 27 26 23 22 18 21 18 19 17 16 18 19 20 18 18 18 18 17 19 20 22 14 7 15 9 8 5 1 1 3 6 8 11 10 10 10 10 9 7
34 36 35 35 30 26 22 18 16 15 13 17 16 15 17 19 19 20 21 21 19 19 22 21 21 18 20 13 19 8 6 7 5 2 6 8 10 10 10 10 10 9 8
38 34 34 35 34 29 25 24 25 27 23 19 19 17 16 17 19 19 22 22 23 19 20 21 21 18 19 21 16 2 3 9 6 5 3 5 7 10 13 13 12 11 9
38 38 37 36 34 33 29 27 25 23 20 15 16 18 18 17 19 20 21 20 20 20 21 22 21 20 19 19 18 7 5 4 7 5 5 6 4 8 11 13 15 14 13
32 34 32 34 35 32 32 31 30 28 21 20 21 21 20 19 18 21 22 22 21 20 22 21 23 22 20 16 17 13 12 9 9 6 4 4 10 8 10 10 13 15 14
Wind_Direction
178 177 165 164 161 150 141 138 130 136 136 134 132 129 129 129 129 130 121 123 128 129 107 110 106 105 107 107 104 95 98 103 103 102 102 98 95 93 90 87 80 78 79
150 167 161 160 158 144 138 132 128 133 134 131 130 129 129 126 127 130 125 124 120 124 125 118 113 114 111 110 94 101 101 100 112 102 99 97 94 91 89 85 83 80 78
145 155 155 151 151 143 138 130 129 134 133 132 132 128 129 128 131 124 125 131 120 117 122 120 116 113 111 103 105 103 105 104 101 99 98 94 93 90 88 87 87 84 82
144 153 149 143 146 143 138 131 127 129 131 129 127 126 124 120 119 123 133 119 117 117 118 114 113 114 110 108 111 111 106 109 106 104 99 99 94 90 88 85 78 75 75
145 155 145 138 147 142 139 136 130 132 127 129 126 124 121 118 121 127 121 122 121 119 117 116 114 113 112 112 116 112 98 105 96 91 88 83 88 89 85 78 76 71 70
149 152 138 135 143 143 143 141 136 133 132 132 130 129 129 128 123 124 124 121 115 113 111 108 110 114 115 119 126 116 102 100 91 81 80 90 96 98 90 88 83 77 71
149 142 136 135 138 139 141 142 137 135 136 136 135 135 134 128 128 127 123 117 116 114 116 119 123 131 140 144 137 119 110 107 98 90 91 100 103 100 94 87 83 78 79
145 139 138 137 137 136 138 136 135 136 138 138 140 134 129 128 125 122 121 115 114 110 110 120 131 136 140 151 139 120 117 111 103 103 109 104 100 95 91 88 85 82 77
141 137 135 141 137 132 134 136 134 140 144 142 137 133 132 130 126 127 120 119 112 100 114 121 120 119 121 152 153 126 119 116 113 120 103 98 94 94 93 91 87 83 79
143 149 147 141 136 135 138 139 137 136 139 142 138 131 131 129 133 131 127 119 98 110 113 108 108 98 90 93 133 123 116 112 110 94 93 97 98 95 93 93 93 90 85
161 161 159 162 147 139 139 142 136 139 139 135 128 134 130 129 134 132 129 108 104 114 109 107 105 95 85 91 104 109 106 102 95 100 103 102 102 102 106 102 95 93 87
168 168 169 169 156 154 153 147 139 146 142 139 136 135 133 139 140 136 130 110 111 116 107 112 101 90 87 95 94 98 110 107 98 99 106 104 105 109 102 99 96 91 86
169 167 174 171 164 162 164 159 153 147 146 141 145 148 147 144 144 140 132 112 114 116 105 110 93 91 98 97 95 108 113 101 99 100 100 102 109 104 101 99 94 92 90
170 172 171 175 167 165 163 170 163 159 156 156 159 157 154 156 159 155 145 125 118 120 113 109 106 108 101 95 96 102 108 106 106 105 108 109 106 108 102 95 94 92 90
172 173 174 174 172 163 167 170 164 165 165 168 168 170 166 168 171 158 150 137 131 133 128 123 123 119 109 104 98 100 104 109 110 111 112 112 113 107 101 99 97 94 92
177 174 173 175 176 168 169 172 177 168 172 171 176 180 177 175 173 166 164 153 148 143 132 132 127 118 107 108 101 105 107 107 104 104 101 97 105 105 105 103 99 98 93
180 171 176 176 177 176 176 175 180 178 172 175 182 185 183 182 178 172 171 167 162 137 124 116 110 110 111 108 108 106 110 107 105 100 99 99 96 92 97 101 100 97 94
172 174 177 178 181 181 181 172 181 180 180 180 186 189 191 190 182 177 182 173 159 139 129 128 127 116 120 125 119 114 105 107 108 107 108 110 108 102 99 104 105 102 96
173 176 179 179 181 183 181 172 177 183 185 187 188 195 198 196 194 188 185 170 155 141 137 139 127 131 131 121 116 118 116 117 123 127 125 123 119 117 109 106 103 99 97
177 176 179 179 181 180 178 174 173 181 194 200 192 199 199 195 194 190 184 158 155 155 144 136 134 120 136 133 122 107 100 115 130 142 143 133 131 131 126 116 110 105 105
181 176 181 181 183 179 181 178 179 184 192 204 208 206 198 190 193 190 177 158 158 161 159 150 132 136 123 124 111 99 77 82 130 162 160 149 149 150 138 136 134 125 116
183 184 180 184 184 186 184 182 180 182 190 198 205 206 201 187 189 183 167 169 163 156 150 152 149 143 135 164 138 118 148 138 167 191 185 179 170 163 164 165 157 150 135
185 186 184 184 185 188 184 180 175 172 179 193 201 200 199 194 184 176 173 171 163 162 163 165 160 157 162 193 171 143 150 207 147 194 217 201 186 184 185 183 181 171 163
191 188 186 185 183 186 184 185 189 189 193 198 197 202 194 189 179 179 173 171 169 169 170 174 172 168 159 180 196 181 122 143 167 172 213 224 210 196 193 194 195 189 180
186 188 189 186 185 181 184 187 189 192 194 186 189 189 189 187 185 178 176 170 174 171 177 176 178 176 176 175 185 155 138 102 114 137 180 201 217 220 207 195 197 195 191
192 188 186 188 187 187 180 186 189 190 180 177 184 189 188 188 187 179 177 176 181 179 178 184 185 182 182 181 187 177 170 167 179 155 136 170 197 214 219 203 198 198 195